Regional Weather Roundup
Issued by NWS

Home | Current Version | Previous Version | Text Only | Print | Product List | Glossary Off
Versions: 1 2 3 4 5 6 7 8 9 10 11 12 13 14 15 16 17 18 19 20 21 22 23 24 25 26 27 28

000
ASUS45 KTFX 301010
RWRMT
MONTANA REGIONAL WEATHER ROUNDUP
NATIONAL WEATHER SERVICE GREAT FALLS MT
400 AM MDT TUE AUG 30 2016

NOTE: "FAIR" INDICATES FEW OR NO CLOUDS BELOW 12000 FEET WITH NO
SIGNIFICANT WEATHER AND/OR OBSTRUCTIONS TO VISIBILITY.

MTZ001>007-043-301100-
WEST OF THE DIVIDE

CITY           SKY/WX    TMP DP  RH WIND       PRES   REMARKS
KALISPELL        N/A     53  47  79 VRB6      30.06R
MISSOULA         N/A     61  41  47 E5        30.10R
BUTTE          CLOUDY    49  33  54 E5        30.23S
MULLAN PASS      N/A     66  32  28 SE6       30.22S
DEER LODGE       N/A     52  36  54 CALM      30.21R
EUREKA           N/A     50  48  93 E3          N/A
HAMILTON         N/A     61  37  41 CALM      30.10S
LIBBY            N/A     54  45  71 CALM      30.06R
RONAN            N/A     53  43  69 CALM      30.10R
$$

MTZ008-052>055-301100-
SOUTHWEST MONTANA

CITY           SKY/WX    TMP DP  RH WIND       PRES   REMARKS
BOZEMAN        CLOUDY    52  44  74 SE5       30.16S
DILLON         CLOUDY    61  29  29 S10       30.20R
W YELLOWSTONE  CLOUDY    36  23  60 SW3       30.37R
ENNIS          MOCLDY    63  25  23 S14       30.26F
THREE FORKS      N/A     53  34  48 CALM      30.13S
$$

MTZ009-010-012-014-046-048-049-054-301100-
EAST SLOPES AND CENTRAL MONTANA

CITY           SKY/WX    TMP DP  RH WIND       PRES   REMARKS
CUT BANK         N/A     52  47  83 W9        30.15R
GREAT FALLS    PTCLDY    61  43  51 SE5       30.10S
HELENA         CLEAR     66  40  38 SW5       30.13S
CHOTEAU          N/A     55  48  76 NW9       30.16S
$$

MTZ011-013-016-021-045-047-050-051-301100-
NORTH CENTRAL MONTANA

CITY           SKY/WX    TMP DP  RH WIND       PRES   REMARKS
HAVRE          CLOUDY    67  49  52 E21       30.11F
LEWISTOWN      PTCLDY    68  47  46 CALM      30.14S
N BAR RANCH      N/A     59  45  58 CALM      30.19S
CHINOOK          N/A     64  50  59 N10       30.14F
$$

MTZ017>020-022>027-061-062-301100-
NORTHEAST MONTANA

CITY           SKY/WX    TMP DP  RH WIND       PRES   REMARKS
GLASGOW        CLOUDY    61  44  53 E12       30.12F
JORDAN           N/A     64  47  53 E10       30.12F
SIDNEY         CLEAR     54  45  71 CALM      30.20S
WOLF POINT     CLEAR     56  44  64 E6        30.16F
PLENTYWOOD       N/A     61  43  51 E6        30.20S
POPLAR           N/A     55  45  67 N5        30.18S
$$

MTZ028>42-056>058-301100-
SOUTHCENTRAL AND SOUTHEAST MONTANA

CITY           SKY/WX    TMP DP  RH WIND       PRES   REMARKS
BAKER          CLEAR     60  49  66 E15       30.24S
BILLINGS       PTCLDY    61  48  62 NW8       30.12R
LIVINGSTON     CLEAR     53  44  71 NW6       30.19S
MILES CITY     PTCLDY    70  47  43 SE14      30.13S
FORSYTH          N/A     64  48  55 NE6       30.09F
LAUREL           N/A     62  46  55 W5        30.09F
ROUNDUP          N/A     62  45  53 W2        30.03F
$$

REGIONAL REPORTS...DAKOTAS

CITY           SKY/WX    TMP DP  RH WIND       PRES   REMARKS
WILLISTON      CLEAR     52  42  69 CALM      30.21S
MINOT          CLEAR     53  46  77 CALM      30.23S
DICKINSON      CLEAR     52  46  80 SE9       30.23F
CROSBY           N/A     46  43  87 E5        30.25S
WATFORD CITY     N/A     50  41  71 E5        30.23S
BISMARCK       CLEAR     51  47  86 CALM      30.26S
GRAND FORKS    CLEAR     49  46  90 W5        30.23S
FARGO          CLEAR     52  48  86 W5        30.23S
BUFFALO SD       N/A     60  50  69 CALM      30.19F
RAPID CITY     CLOUDY    66  63  90 NE3       30.25F
$$

REGIONAL REPORTS...WYOMING/IDAHO/WASHINGTON

CITY           SKY/WX    TMP DP  RH WIND       PRES   REMARKS
GILLETTE       CLEAR     64  58  80 S14       30.26R
SHERIDAN       CLEAR     53  45  74 MISG      30.18S
BUFFALO WY     CLEAR     64  42  44 S10       30.27F
CODY           CLOUDY    64  37  36 SW7       30.23F
YELLOWSTONE LA   N/A     39  33  79 CALM      30.46S
IDAHO FALLS    CLOUDY    47  38  71 NW6       30.19S
SALMON         CLOUDY   N/A N/A N/A MISG        N/A
BOISE            N/A     71  31  22 NW5       29.98S
SPOKANE          N/A     68  39  34 S7        29.98S
$$

REGIONAL REPORTS...ALBERTA

CITY           SKY/WX    TMP DP  RH WIND       PRES   REMARKS
EDMONTON       MOCLDY    50  45  81 E7        30.17F
CALGARY        PTCLDY    54  50  87 S7        30.13R
LETHBRIDGE     PTCLDY    54  52  94 E3        30.13R
MEDICINE HAT   MOCLDY    63  55  77 E9        30.09F
$$

REGIONAL REPORTS...SASKATCHEWAN

CITY           SKY/WX    TMP DP  RH WIND       PRES   REMARKS
SWIFT CURRENT  MOCLDY    50  46  87 NE6       30.21R
REGINA         PTCLDY    54  45  71 E7        30.24R
SASKATOON      CLEAR     46  45  93 NE7       30.28R
$$




USA.gov is the U.S. government's official web portal to all federal, state and local government web resources and services.